Theta_e
319 322 324 322 320 316 317 317 318 316 313 313 314 313 312 311 309 310 310 311 311 312 311 311 313 314 313 314 313 314 315 318 335 338 336 335 336 336 335 335 335 335 334 333
319 321 318 320 321 317 317 317 317 314 311 313 311 311 311 311 311 311 311 311 309 308 308 307 308 309 310 312 313 313 314 315 323 335 335 336 336 336 336 335 335 335 335 335
319 315 318 322 322 319 317 318 315 316 311 308 309 312 310 308 307 306 305 305 305 304 304 303 304 306 308 308 310 311 313 314 315 327 335 336 336 335 335 334 334 337 336 336
317 317 318 318 319 318 322 315 314 313 315 319 309 318 312 307 306 305 305 306 306 305 305 304 305 305 305 306 307 308 310 311 313 315 333 334 334 334 334 333 334 336 336 335
317 319 319 315 314 316 318 313 311 310 310 311 311 314 311 306 306 306 306 307 307 306 306 307 306 306 306 307 307 307 308 309 311 312 325 331 333 333 333 333 333 334 335 334
314 313 316 314 316 315 309 309 307 306 307 311 308 310 309 308 307 307 306 307 307 308 308 307 306 307 308 309 309 308 307 307 308 309 311 328 332 333 332 333 333 333 334 331
314 314 311 312 312 310 309 311 311 310 312 312 307 310 309 306 307 307 308 308 307 308 309 309 308 307 308 309 309 309 309 309 308 309 309 313 329 331 332 331 331 331 330 329
316 318 313 310 312 313 310 313 312 309 311 309 307 312 309 304 302 305 306 305 305 308 309 309 308 306 308 310 310 310 309 308 309 308 309 310 313 320 328 330 330 330 330 329
312 315 310 310 309 310 310 311 304 304 301 307 308 306 304 305 306 306 306 306 307 308 309 309 308 307 307 309 310 311 311 310 309 309 309 310 310 310 314 321 326 328 328 328
309 316 313 310 310 309 309 306 310 304 307 311 305 305 307 307 308 307 307 307 307 308 309 309 308 307 307 308 309 309 309 310 310 311 312 312 312 312 312 312 315 318 321 323
307 310 314 312 313 311 310 309 305 305 305 308 308 305 302 307 307 307 306 306 308 311 310 309 307 306 308 308 306 305 305 307 308 309 310 311 312 312 313 314 315 316 316 317
308 310 315 314 308 308 308 309 304 306 307 304 306 307 303 302 304 304 305 305 311 309 308 305 304 305 306 302 302 301 302 303 305 307 308 308 309 309 310 310 312 311 313 313
308 307 313 314 311 309 311 308 304 303 303 306 307 307 302 303 304 303 304 306 310 308 303 302 304 305 301 298 298 298 299 300 302 305 306 306 307 309 309 309 308 309 309 308
307 305 307 310 309 309 307 309 305 305 308 307 305 305 305 306 305 306 306 309 308 304 301 299 299 298 297 297 296 296 296 297 299 301 302 302 302 302 301 300 299 299 299 298
307 308 306 307 309 308 308 310 306 304 305 309 307 305 306 305 305 306 307 309 307 303 300 299 297 297 296 295 294 294 294 294 295 295 295 295 296 297 296 295 294 294 292 292
305 308 306 307 308 308 310 309 308 307 308 306 306 308 308 308 308 308 310 307 305 302 300 298 296 296 295 294 293 293 293 293 293 293 293 293 293 293 293 293 293 293 292 292
307 306 306 307 307 309 310 309 309 308 307 309 311 310 309 309 310 314 309 305 302 298 299 297 296 295 294 294 294 293 293 293 293 292 292 292 292 292 292 292 292 291 291 292
306 308 307 309 308 315 308 306 308 309 308 307 308 309 310 309 312 305 302 301 298 296 296 295 295 295 294 294 294 294 293 293 293 292 292 291 291 291 291 291 291 291 291 291
308 311 312 311 311 308 314 310 308 311 315 307 308 309 309 310 311 308 299 297 295 294 294 294 294 293 293 293 293 293 293 292 292 291 291 291 290 290 290 290 290 291 292 292
310 308 308 307 308 311 308 312 309 311 322 314 309 312 312 314 319 315 299 295 294 294 294 294 293 293 293 292 293 292 291 291 290 290 290 291 291 291 291 291 291 291 290 289
313 313 311 310 308 308 304 307 307 319 319 312 313 313 313 314 311 302 297 296 295 295 294 294 294 293 293 292 291 291 290 290 290 291 291 291 291 291 291 291 290 290 289 287
311 312 313 312 309 309 304 311 317 315 310 311 310 310 313 307 302 299 297 296 295 295 295 294 294 293 292 291 291 290 289 290 291 292 291 291 291 291 291 290 286 284 283 283
312 306 310 307 308 305 305 309 309 307 307 307 308 307 308 304 303 299 297 295 294 294 294 294 294 293 292 290 291 291 290 291 291 291 291 291 291 289 285 284 284 283 283 283
307 304 308 309 309 305 306 306 305 306 308 306 304 304 304 304 302 300 298 295 294 294 293 293 293 292 291 291 291 292 291 292 292 291 288 286 285 284 284 284 284 283 283 282
306 305 308 307 307 308 310 308 309 309 306 304 302 303 304 302 301 300 297 295 295 294 294 294 293 292 290 291 291 292 292 293 291 286 285 284 284 283 282 282 282 282 281 281
303 306 308 309 307 308 308 307 308 308 307 304 302 303 302 301 301 300 298 295 295 295 293 292 293 292 292 292 292 292 292 291 286 285 284 284 283 283 283 284 284 284 284 284
Wind_Speed
12 10 14 18 10 4 8 7 4 3 2 3 4 5 9 10 6 8 10 11 12 11 10 18 24 24 22 21 22 24 29 30 27 26 26 25 30 31 32 36 34 35 33 33
3 12 9 9 8 4 12 9 5 1 2 2 2 7 12 11 7 9 11 10 8 8 9 12 18 22 22 24 26 25 26 31 30 28 28 23 28 28 32 27 30 36 35 35
5 6 7 10 17 12 4 10 4 4 2 2 3 5 3 1 3 4 5 2 3 6 10 10 10 13 16 19 23 25 27 27 31 31 28 23 19 21 21 29 32 35 37 38
7 6 14 5 7 5 7 1 5 6 3 2 3 3 2 2 10 10 7 8 8 8 8 7 7 6 6 10 12 18 24 24 26 30 25 26 23 23 26 27 32 28 34 38
2 15 16 12 6 4 2 5 3 3 4 1 1 2 3 0 5 4 6 6 7 8 7 9 9 13 14 11 6 6 12 19 21 21 28 29 28 27 27 27 24 28 31 35
5 2 4 2 17 12 10 6 6 4 2 0 1 2 2 2 3 2 1 4 6 8 7 6 9 14 16 16 16 14 6 6 13 18 21 28 26 26 25 30 28 27 28 32
3 4 4 5 10 3 3 3 2 2 1 2 1 2 5 2 2 4 2 4 5 6 8 9 10 12 17 22 20 16 14 12 8 6 14 21 25 24 31 29 29 23 28 31
3 4 2 2 3 6 2 3 3 4 3 2 1 5 2 3 4 4 1 4 5 6 7 8 8 11 16 19 21 21 17 13 10 8 6 7 16 24 28 30 31 31 31 32
4 4 3 5 2 2 2 2 2 6 2 1 2 4 3 2 2 1 2 2 5 5 6 7 9 12 11 17 18 19 19 15 10 8 9 9 10 13 18 23 25 27 28 28
2 6 3 1 3 9 2 6 2 2 3 3 2 3 4 5 4 1 3 4 4 4 6 6 7 10 9 13 13 14 14 14 12 9 7 8 8 9 13 17 20 22 23 23
4 4 1 1 1 6 2 2 4 3 1 3 1 3 5 9 7 2 4 4 2 5 7 7 9 11 11 10 11 12 14 14 13 11 8 5 5 5 6 9 13 15 16 16
1 5 4 2 1 2 2 3 3 3 3 1 1 4 1 5 5 2 6 5 4 5 7 9 10 11 9 12 14 14 15 13 13 12 10 9 8 9 8 6 6 7 10 11
4 2 4 1 1 2 2 4 4 4 2 4 3 3 1 2 4 8 5 6 5 4 9 9 9 10 10 11 13 16 17 16 13 12 11 11 11 10 8 5 1 3 6 9
6 3 4 4 2 3 2 4 4 4 2 4 5 5 4 4 6 10 9 1 3 5 7 8 9 9 12 15 16 15 16 17 15 13 13 12 11 11 10 8 8 9 12 16
3 3 2 1 2 3 4 4 7 5 5 5 2 5 6 7 7 7 4 2 4 6 6 7 7 6 11 10 10 15 17 16 15 16 15 14 14 14 14 14 15 16 18 21
3 2 2 3 1 4 3 4 7 8 3 7 2 13 13 13 7 4 2 2 3 4 5 5 4 6 7 6 10 12 14 17 16 16 16 14 16 16 15 15 16 17 21 23
3 4 2 2 2 1 4 9 11 5 4 8 7 9 6 5 3 2 1 1 2 2 3 3 2 5 5 8 6 10 11 14 16 17 18 14 13 15 16 17 18 23 25 26
4 4 2 1 2 2 3 1 7 12 4 11 6 9 9 7 1 3 3 2 2 1 2 3 3 5 6 7 8 11 12 15 16 16 15 14 14 15 19 21 24 27 26 25
1 3 2 1 2 5 1 2 5 5 1 9 13 13 10 4 3 2 4 4 3 3 3 4 6 5 7 6 7 12 13 13 16 15 15 14 16 20 22 24 24 24 24 24
4 5 3 1 1 2 2 0 2 2 3 3 7 7 4 2 2 1 5 5 5 5 5 6 6 7 9 7 8 13 14 16 17 15 15 15 19 22 23 22 22 24 24 24
1 1 3 2 2 5 5 4 1 1 3 2 1 4 3 3 1 6 8 6 6 6 8 8 8 10 7 6 9 15 15 15 14 16 18 18 19 21 21 22 21 20 21 20
5 4 3 2 0 5 4 1 1 1 3 3 3 3 2 4 7 8 8 8 6 7 8 7 10 10 8 10 13 15 16 13 16 19 20 21 20 18 18 19 18 17 18 18
3 5 3 6 5 4 3 3 1 1 5 4 1 2 2 6 6 9 8 7 6 7 7 8 9 10 7 8 13 16 13 16 20 21 19 17 17 15 14 16 16 15 13 12
3 3 2 1 1 6 6 5 4 2 3 2 2 2 5 5 9 8 8 8 7 8 8 8 9 9 11 13 15 17 17 17 17 18 17 16 16 15 14 13 12 11 10 9
4 5 4 4 6 5 1 3 3 2 2 2 2 2 4 6 7 9 9 9 10 10 10 10 11 12 12 15 16 16 16 15 18 17 15 14 14 14 15 15 12 10 9 6
5 6 4 5 6 4 5 4 4 5 5 3 3 2 2 5 9 10 9 13 14 13 13 12 12 14 14 15 15 14 14 16 18 17 15 13 13 13 12 14 15 11 9 8
Wind_Direction
187 198 201 194 191 130 139 155 155 220 174 150 228 245 264 265 263 251 252 259 265 256 259 268 274 270 256 249 241 235 232 230 223 217 218 219 220 226 232 237 235 240 236 234
144 204 178 191 184 164 160 163 179 69 85 155 18 282 258 249 248 238 251 264 288 294 294 277 271 271 261 253 246 242 235 232 225 216 216 215 224 227 228 230 235 240 238 234
169 160 195 212 186 162 159 168 167 145 130 83 323 277 277 307 338 22 45 36 31 338 319 311 292 270 264 254 249 248 243 234 229 222 220 216 225 224 224 231 231 232 239 236
124 168 178 77 112 134 139 95 127 121 103 217 358 283 310 60 55 62 51 35 13 344 341 347 3 348 300 280 269 257 250 245 234 227 216 214 217 221 223 225 230 228 234 238
91 166 167 156 170 143 153 73 106 89 95 64 5 142 268 270 58 43 27 13 355 339 341 357 6 24 38 30 357 277 252 243 240 229 217 217 220 224 226 226 230 229 233 238
73 56 95 4 153 165 138 99 59 59 83 97 278 198 290 139 130 102 14 354 336 342 356 8 11 26 32 33 35 37 11 284 248 242 234 228 225 224 224 228 229 232 232 238
50 44 9 146 90 77 102 107 54 24 32 217 350 132 251 259 272 160 162 334 332 335 8 8 9 9 17 23 20 17 19 16 5 295 252 241 239 235 235 233 233 230 236 240
136 101 50 329 108 161 115 133 153 180 180 187 31 228 206 301 207 161 265 287 307 352 4 5 358 352 3 10 12 9 1 354 348 341 319 272 252 249 250 250 248 243 245 251
120 59 349 46 111 72 154 115 148 107 23 75 212 275 354 209 188 290 336 10 8 2 359 352 344 351 350 360 359 359 354 351 344 323 312 300 284 270 263 264 263 261 258 256
146 102 47 173 66 35 112 133 103 354 120 258 254 267 179 189 190 264 345 6 346 345 352 355 354 352 348 354 355 359 359 351 348 332 312 300 289 274 268 266 268 266 264 258
127 93 24 120 36 160 138 85 55 92 87 166 230 252 192 177 176 88 326 308 353 2 4 1 353 354 1 15 14 15 16 12 6 2 355 339 326 314 290 276 273 270 263 251
23 118 119 145 224 174 96 142 137 129 221 79 90 276 261 219 197 1 315 315 25 2 5 359 351 354 25 22 16 11 5 8 13 10 7 19 16 8 359 343 309 284 253 229
178 43 103 75 86 33 185 175 122 100 85 192 141 264 141 219 265 280 283 328 15 22 15 7 13 22 22 23 23 20 14 9 9 15 25 35 37 34 24 6 335 186 205 195
94 93 148 176 165 130 172 177 163 126 133 156 229 306 290 302 311 319 320 26 13 41 22 13 12 13 24 27 22 23 23 21 22 34 41 50 55 70 77 85 95 116 138 144
81 100 88 203 119 153 186 175 178 177 183 173 246 215 270 271 282 274 283 32 23 22 16 16 6 13 27 25 30 42 44 42 46 54 58 58 69 80 92 98 101 110 112 116
14 123 90 9 91 223 260 226 200 221 221 261 259 284 263 268 281 285 117 359 9 15 18 15 12 36 30 23 35 47 51 53 54 55 57 57 69 81 86 92 102 110 107 110
81 123 71 292 359 341 288 223 196 187 205 208 211 231 268 265 271 142 181 136 47 30 20 26 31 52 47 49 48 54 54 64 64 62 60 63 76 91 98 105 111 112 108 109
123 108 100 244 348 230 241 239 186 203 196 216 261 256 258 284 117 128 106 116 98 84 69 52 47 63 57 54 62 66 61 65 68 66 67 71 79 88 94 105 105 106 110 114
95 108 116 236 241 290 112 169 142 179 244 205 227 263 276 263 166 158 121 100 117 131 111 96 74 68 66 57 71 77 71 72 74 69 73 87 99 102 108 105 106 113 115 113
63 76 117 142 160 208 231 97 164 236 124 191 203 257 278 147 277 152 137 123 110 105 119 102 90 78 66 55 74 83 79 80 81 86 96 106 115 119 118 117 117 117 114 110
135 116 181 246 252 286 249 274 206 146 191 322 227 276 247 197 184 124 124 122 129 132 113 100 85 78 73 75 88 87 88 82 98 103 109 114 117 116 117 117 116 115 111 109
174 162 197 153 229 285 193 299 126 229 289 256 274 257 258 132 131 136 139 135 129 115 108 104 101 91 89 99 102 98 92 109 109 110 113 115 115 114 115 110 106 106 112 113
226 182 186 184 214 243 234 235 262 192 269 288 258 292 183 149 158 152 149 136 132 127 119 110 108 110 99 109 121 111 116 122 119 116 114 112 111 110 110 109 109 107 107 103
249 172 229 45 242 235 251 282 264 298 259 299 252 251 184 170 154 147 143 138 143 139 134 131 122 114 110 127 128 127 132 131 125 117 115 116 114 111 106 104 104 105 107 109
209 148 204 249 286 290 217 216 249 30 249 282 282 225 210 156 157 149 147 150 153 152 151 154 141 136 134 134 131 135 136 138 130 125 124 121 117 114 108 96 87 90 84 84
187 194 171 224 231 186 251 283 323 271 255 247 215 208 185 172 161 151 154 158 161 160 157 152 148 146 144 143 145 151 153 152 143 136 134 130 125 118 112 110 101 84 96 91